Temperature
19 17 17 17 18 19 19 19 19 20 21 20 19 20 20 20 20 19 19 19 20 20 21 20 20 20 20 19 19 19 18 18 17 17 17 17 16 16 16 16 16 16 16 16
17 17 18 19 19 19 19 19 19 20 20 21 19 19 19 19 19 19 19 19 20 20 20 20 20 20 19 19 19 18 18 18 18 17 17 17 16 16 16 16 16 15 15 15
18 19 20 20 19 19 19 19 19 20 20 20 20 19 19 19 19 20 20 20 20 20 20 20 20 20 19 19 19 18 18 18 17 17 17 16 16 16 15 15 15 15 15 15
18 19 20 20 20 20 19 20 20 20 19 18 19 18 19 19 18 18 19 19 19 20 20 20 20 19 19 19 19 18 18 17 17 17 17 16 16 16 16 15 15 15 15 15
19 19 20 20 20 20 20 21 20 20 18 18 18 18 18 18 18 18 18 18 19 19 19 19 19 19 19 19 18 18 17 17 17 17 16 16 16 16 15 15 15 15 15 15
19 20 20 21 21 21 21 20 19 17 16 18 18 18 18 17 18 18 18 18 18 18 19 19 19 19 18 18 18 18 17 17 17 16 16 16 16 15 15 15 15 15 15 15
20 20 21 21 21 21 20 18 17 18 16 17 18 18 17 18 18 18 17 18 18 18 18 18 18 18 18 18 18 17 17 17 16 16 16 15 15 15 15 15 15 15 15 15
19 19 21 21 21 20 19 18 17 18 17 17 18 18 17 18 18 18 18 18 17 17 18 18 18 18 18 18 18 17 17 17 16 16 15 15 15 15 15 15 15 15 15 15
18 19 20 21 21 20 19 18 18 16 17 17 17 17 18 18 17 17 17 17 16 17 17 18 18 18 18 18 18 17 17 17 16 16 15 15 15 15 15 15 14 14 14 14
18 19 20 21 21 20 19 17 15 16 17 17 18 17 17 18 17 16 16 16 16 16 17 17 17 18 17 18 17 17 17 16 16 16 15 15 15 15 14 14 14 14 14 14
18 18 19 20 20 20 18 17 16 14 15 16 17 17 17 17 17 16 15 16 16 16 16 17 17 17 17 17 17 17 16 16 16 15 15 15 15 15 14 14 14 14 14 14
17 16 17 18 19 19 19 17 16 16 16 15 16 16 17 16 16 15 16 16 16 16 16 16 17 17 17 16 16 16 16 16 15 15 15 15 15 15 14 14 14 14 14 14
16 16 17 18 18 18 18 17 16 15 14 14 15 17 17 15 15 16 16 16 16 15 15 16 16 16 16 16 16 16 15 15 15 15 15 15 15 14 14 14 14 14 14 14
16 15 16 17 17 17 18 17 16 15 15 15 15 16 16 16 15 15 15 15 15 15 15 15 15 16 16 16 16 15 15 15 15 15 15 15 15 14 14 14 14 14 14 14
15 15 16 16 17 17 17 17 16 16 16 16 16 16 16 15 15 15 15 15 15 14 15 15 15 15 15 15 15 15 15 15 15 15 15 15 14 14 14 14 14 14 14 14
13 14 15 16 17 17 17 17 17 16 16 16 16 15 14 14 15 14 14 14 14 14 14 15 15 15 15 15 15 15 15 15 14 15 15 14 14 14 14 14 14 14 14 14
12 13 14 15 16 17 16 16 16 16 15 15 15 15 14 14 13 14 14 14 14 14 14 15 15 15 15 15 15 15 15 14 14 14 14 14 14 14 14 14 14 14 14 14
11 12 12 13 15 15 15 16 16 16 15 15 14 14 14 14 14 14 14 14 14 14 15 15 15 15 15 15 15 14 14 14 14 14 14 14 14 13 13 13 13 13 13 13
11 12 12 12 14 15 15 15 15 15 14 14 14 13 13 13 13 13 14 14 15 15 15 15 15 14 14 14 14 14 14 14 14 14 14 14 13 13 13 13 13 13 13 13
11 11 11 12 14 14 14 15 15 15 14 13 13 13 12 13 12 13 14 14 14 15 15 15 14 14 14 14 14 14 14 14 14 14 14 13 13 13 13 13 13 13 13 13
11 11 11 12 13 13 13 14 15 15 14 13 13 13 12 12 13 14 14 14 14 14 14 14 14 14 14 14 14 14 14 13 13 13 13 13 13 13 13 13 13 13 13 13
11 11 11 11 12 13 13 13 13 13 13 13 13 13 13 13 13 13 14 14 14 14 14 14 14 13 13 13 13 13 13 13 13 13 13 13 13 13 13 12 13 12 12 12
11 10 10 11 12 11 12 12 13 13 12 13 13 13 13 13 13 13 13 13 13 13 13 13 13 13 13 13 13 13 13 13 13 13 13 13 13 12 12 12 12 12 12 12
10 10 10 10 11 11 12 12 13 13 13 13 13 13 13 13 12 13 13 13 13 13 13 13 13 13 13 13 12 12 13 13 12 12 12 12 12 12 12 12 12 12 12 12
9 9 10 10 10 11 12 12 12 12 13 13 13 13 13 12 12 12 12 12 12 12 12 12 12 12 12 12 12 12 12 12 12 12 12 12 12 12 12 12 12 12 12 12
8 9 9 10 10 10 10 11 12 12 12 12 12 12 12 12 12 12 12 12 12 12 12 12 12 12 12 12 12 12 12 12 12 12 12 11 11 11 11 11 11 11 11 11
Wind_Speed
4 3 7 10 11 8 5 5 8 10 5 3 7 9 9 5 5 6 7 7 8 8 6 6 7 7 8 8 8 8 8 7 6 4 4 3 3 2 2 2 3 4 4 5
2 7 12 7 6 6 6 6 8 9 3 3 4 8 7 5 7 8 9 9 8 6 4 6 6 7 7 9 9 8 9 8 8 5 4 3 3 2 2 1 1 3 4 5
10 8 5 6 5 6 7 8 8 7 4 2 1 6 4 4 3 3 5 6 7 9 9 9 8 8 8 9 9 9 9 8 8 7 5 4 3 2 1 1 1 2 3 4
8 7 5 6 7 8 8 9 8 5 2 4 0 3 7 3 2 3 4 4 5 6 7 8 9 8 9 9 8 7 7 7 7 7 7 6 5 4 4 3 2 2 2 3
8 6 7 7 8 9 8 3 3 3 4 2 1 3 7 2 3 5 5 5 4 5 7 8 9 9 8 8 8 7 7 6 6 7 8 7 5 4 2 2 2 2 2 2
8 5 7 8 6 7 4 4 4 4 4 2 5 5 6 4 5 4 4 4 3 4 4 6 6 6 6 6 7 6 6 5 5 6 6 7 7 5 4 3 3 2 1 1
5 4 4 4 2 1 5 5 3 3 2 6 3 4 7 6 5 4 5 4 2 4 5 5 7 7 7 7 7 7 7 6 5 6 6 7 7 7 7 5 4 3 2 2
4 5 4 4 6 5 4 8 7 5 5 5 2 5 6 3 2 2 2 2 2 4 4 6 7 8 8 8 8 7 7 6 6 6 6 6 6 5 5 5 4 4 4 4
7 6 4 4 4 8 5 4 6 6 2 2 5 5 5 2 2 1 1 2 3 3 4 5 5 6 7 7 7 8 8 6 6 6 6 6 6 6 5 5 4 4 3 3
7 5 4 2 3 2 6 7 5 5 4 3 4 3 4 4 4 3 1 2 3 3 3 4 4 5 5 5 5 6 6 7 6 6 5 5 6 6 6 5 4 4 3 3
4 5 3 1 3 5 3 4 5 4 5 5 3 5 4 6 5 4 3 3 4 4 4 4 3 3 4 3 4 5 6 5 5 5 5 5 5 5 5 5 5 4 3 3
3 4 4 5 4 3 5 6 7 5 4 4 4 6 3 3 4 3 2 2 3 4 3 3 3 3 3 3 4 4 5 5 6 5 5 5 4 4 5 4 4 4 4 4
3 4 1 4 3 1 2 3 4 5 4 4 4 5 2 2 1 0 2 3 4 4 3 3 3 2 2 3 3 3 4 5 4 5 5 5 4 4 5 5 4 4 4 4
3 3 6 8 6 4 2 1 4 6 4 5 6 6 5 5 3 1 2 3 4 4 4 3 2 2 2 2 3 3 3 4 4 4 5 5 5 5 5 4 4 4 4 4
3 3 3 3 2 4 3 2 4 4 6 6 6 5 5 5 3 2 3 4 4 3 3 2 3 2 2 1 1 2 2 3 4 4 4 5 4 3 3 3 4 3 3 4
3 2 2 1 2 3 1 1 3 3 3 3 2 3 4 3 1 2 3 4 4 3 3 2 2 2 2 2 2 1 1 2 3 4 4 3 2 2 3 3 3 3 3 3
1 2 2 3 2 1 2 3 4 3 2 4 4 5 2 1 1 2 3 3 3 3 3 3 3 4 4 4 3 3 2 2 4 4 3 3 3 3 3 3 3 3 3 2
3 2 2 2 2 4 5 1 2 3 1 1 1 1 1 2 1 0 2 3 3 3 2 2 3 3 3 2 2 2 2 2 3 3 3 3 3 3 2 2 3 3 3 3
4 4 3 3 3 3 3 2 1 3 2 1 1 2 2 3 3 3 1 1 3 4 3 3 3 3 2 3 2 3 2 2 2 3 3 3 4 3 3 3 3 3 3 3
3 3 3 2 3 4 4 4 3 2 2 2 0 1 2 4 1 3 2 1 1 1 2 2 2 1 2 2 3 3 2 2 1 2 2 3 3 4 3 4 3 2 2 3
2 2 2 2 3 3 3 4 2 3 4 2 1 2 3 3 4 3 2 1 1 1 1 2 3 2 2 2 3 3 3 2 2 1 1 1 2 3 3 3 3 2 3 3
2 3 3 3 3 4 3 3 2 3 2 1 1 2 2 2 1 1 1 1 1 1 1 2 3 1 1 2 3 3 2 2 1 1 0 1 1 1 2 2 2 2 2 2
0 2 3 4 4 2 1 1 1 0 1 2 1 2 1 1 1 1 1 1 1 1 1 1 2 2 1 1 3 3 2 1 1 0 0 1 0 1 0 1 1 1 1 2
2 1 1 1 2 3 2 2 2 2 2 2 2 1 1 1 1 2 1 1 1 0 1 1 2 2 0 1 1 1 1 0 1 0 1 0 1 1 1 1 1 1 2 2
3 2 1 2 3 4 4 3 3 3 3 3 2 1 2 2 2 2 2 1 1 1 0 1 2 2 2 1 1 1 1 2 1 0 1 1 0 0 1 1 1 2 3 3
1 2 2 3 3 2 4 4 3 3 3 3 3 4 3 1 2 1 1 1 1 1 1 1 1 1 1 1 1 1 1 2 2 0 1 1 1 1 1 1 2 2 2 2
Wind_Direction
137 134 213 213 200 205 210 229 262 267 257 238 251 262 267 235 206 205 207 206 207 214 205 182 179 171 163 159 162 165 161 158 148 151 155 157 170 176 169 176 185 180 173 168
87 236 228 209 198 207 224 252 268 285 285 219 263 277 272 233 210 209 206 207 206 204 189 183 178 171 169 168 169 166 169 167 162 167 163 156 157 172 182 168 175 188 182 172
200 231 201 187 211 214 230 216 237 257 315 333 279 307 286 274 238 223 213 212 204 198 197 192 183 180 176 176 178 177 175 171 167 159 142 131 108 90 118 180 204 210 192 175
227 239 201 206 222 202 244 227 219 236 259 288 162 278 287 280 281 242 238 232 217 209 199 193 183 181 183 182 173 170 167 167 164 159 159 159 166 179 199 200 203 214 193 183
233 211 198 219 223 189 220 228 199 206 182 262 277 201 278 311 263 264 254 243 226 206 197 189 186 185 179 172 169 170 161 160 160 163 170 169 171 180 175 170 181 200 208 203
238 224 202 214 222 198 189 77 49 56 93 240 234 189 269 246 237 258 257 248 224 192 181 180 172 161 161 161 162 161 155 157 157 164 172 174 176 173 165 176 190 209 227 234
281 269 234 196 215 174 123 104 30 356 1 247 232 193 246 248 239 235 238 236 204 175 167 162 160 161 163 166 165 164 160 163 167 172 178 183 181 179 186 190 198 201 209 226
221 270 233 193 187 189 176 150 165 199 221 265 268 225 248 261 253 254 226 199 159 152 158 166 171 170 170 172 166 165 164 171 173 178 184 184 182 184 195 194 194 200 210 222
194 245 262 218 192 157 151 177 171 148 178 244 270 281 305 325 336 351 105 133 150 155 158 164 167 170 171 171 171 172 170 172 176 181 184 183 180 188 196 194 191 200 213 217
174 225 263 246 98 88 151 143 106 133 168 237 275 265 263 284 277 276 243 183 169 146 143 158 172 175 170 168 163 163 173 178 181 184 190 188 184 189 192 190 197 206 215 211
156 186 285 9 181 190 131 124 128 138 167 174 235 265 231 234 241 236 228 196 170 163 162 164 170 169 157 148 150 163 172 173 181 188 190 180 179 178 178 191 206 209 212 208
163 153 232 250 253 199 172 166 149 159 215 185 184 256 285 253 247 221 209 170 149 157 156 144 135 132 143 157 160 164 173 180 188 187 180 184 180 175 184 199 210 207 212 218
140 133 179 326 329 21 133 156 153 137 134 167 183 253 332 359 358 55 151 145 138 137 130 110 111 126 150 166 172 175 181 188 184 174 171 176 184 188 200 208 208 205 210 219
123 140 182 207 214 185 178 171 152 138 161 200 218 246 304 324 333 6 111 131 130 132 132 133 144 146 157 161 174 179 180 179 175 170 169 179 194 200 206 207 204 205 207 212
89 174 220 235 198 138 150 171 163 174 187 193 225 229 265 277 258 195 140 126 126 129 133 157 168 162 145 136 147 170 172 172 169 164 175 195 199 192 193 200 205 204 207 219
47 165 194 253 178 154 149 217 200 213 201 196 214 261 290 295 18 96 130 143 159 170 177 188 179 165 171 177 184 174 174 181 168 169 190 191 179 182 199 211 206 202 211 219
13 130 145 230 232 76 263 240 200 197 197 171 208 249 303 344 276 194 176 166 174 185 189 194 198 203 200 192 183 190 197 182 174 180 179 169 175 195 213 212 201 211 211 205
161 133 151 180 136 206 235 282 165 164 185 173 211 270 250 236 203 118 167 176 191 199 196 199 208 210 209 196 183 180 167 157 168 176 182 175 182 203 207 196 215 226 214 207
166 152 147 153 180 247 297 332 163 181 235 302 261 334 32 42 52 13 334 213 210 214 208 204 201 200 190 185 182 147 133 130 150 182 199 205 199 200 201 211 230 233 219 225
86 99 122 141 165 216 257 314 316 125 247 315 146 148 75 78 56 279 287 310 292 216 175 165 155 138 152 183 169 146 151 152 183 224 219 210 197 197 210 220 223 224 226 232
82 84 142 172 202 252 299 323 28 148 254 294 209 193 165 183 219 244 257 300 274 187 154 138 133 140 175 178 153 151 153 190 224 229 253 246 212 204 212 220 219 213 224 229
158 157 177 159 179 252 341 72 145 232 302 287 220 219 218 255 272 216 206 200 151 106 107 125 129 134 151 149 143 155 197 232 218 169 137 273 262 233 210 206 222 213 209 219
168 198 193 189 208 269 291 197 267 255 289 286 264 263 207 263 246 178 150 155 148 138 125 131 135 129 104 150 150 172 232 229 128 89 293 303 342 355 326 201 224 237 219 220
325 6 117 270 293 320 334 4 354 335 297 280 252 218 170 192 176 152 136 114 77 93 132 142 130 126 155 209 181 200 245 92 118 173 309 337 49 358 359 340 251 230 236 237
296 334 344 291 310 340 349 352 346 353 16 23 25 70 143 151 171 167 161 157 159 186 303 142 160 168 192 192 187 203 157 126 122 229 275 290 265 278 336 320 262 245 243 224
253 224 210 248 264 256 287 309 344 17 17 41 55 34 23 101 151 142 146 164 150 150 122 128 141 138 141 159 174 188 173 147 143 188 248 241 234 267 286 304 323 320 265 261
Height
1480 1486 1489 1486 1485 1486 1487 1490 1492 1484 1477 1480 1480 1477 1472 1470 1470 1471 1472 1473 1474 1475 1477 1480 1482 1485 1487 1490 1492 1495 1497 1500 1502 1504 1506 1508 1510 1513 1514 1516 1518 1519 1520 1521
1484 1485 1476 1477 1480 1483 1486 1491 1489 1480 1475 1477 1479 1477 1470 1468 1467 1467 1468 1469 1471 1473 1475 1477 1480 1483 1485 1487 1490 1493 1495 1498 1499 1502 1504 1507 1509 1511 1513 1514 1516 1517 1518 1519
1480 1474 1471 1475 1478 1482 1483 1487 1485 1482 1477 1476 1479 1480 1472 1467 1466 1467 1467 1468 1469 1470 1472 1474 1477 1479 1482 1485 1488 1490 1493 1495 1497 1500 1503 1505 1508 1509 1511 1512 1514 1515 1516 1517
1474 1469 1469 1472 1475 1477 1483 1473 1475 1478 1485 1490 1484 1495 1477 1470 1468 1466 1466 1466 1466 1468 1469 1471 1473 1477 1480 1482 1486 1489 1491 1494 1496 1499 1501 1503 1505 1506 1508 1510 1512 1513 1514 1515
1470 1465 1467 1470 1468 1469 1472 1468 1472 1476 1483 1490 1487 1493 1483 1472 1470 1466 1464 1464 1464 1465 1466 1468 1471 1474 1478 1481 1484 1487 1489 1492 1494 1497 1499 1501 1503 1505 1507 1508 1510 1511 1512 1513
1462 1459 1460 1460 1459 1461 1464 1470 1475 1482 1489 1498 1487 1492 1487 1475 1468 1463 1462 1461 1461 1463 1464 1466 1470 1473 1477 1480 1483 1486 1488 1490 1493 1495 1497 1499 1501 1503 1504 1506 1507 1508 1509 1510
1464 1459 1455 1455 1459 1461 1465 1481 1496 1497 1504 1499 1483 1486 1483 1466 1462 1460 1460 1459 1459 1461 1463 1465 1468 1471 1474 1477 1480 1483 1486 1488 1491 1493 1495 1497 1499 1501 1502 1504 1505 1506 1507 1508
1472 1470 1455 1452 1456 1462 1466 1475 1494 1502 1504 1496 1483 1484 1473 1461 1459 1458 1458 1458 1459 1460 1461 1464 1467 1469 1472 1475 1478 1481 1483 1486 1488 1490 1492 1494 1497 1498 1500 1502 1503 1504 1504 1505
1469 1467 1451 1448 1449 1454 1465 1472 1472 1487 1491 1496 1489 1478 1467 1459 1458 1458 1457 1457 1458 1459 1460 1463 1466 1468 1471 1473 1476 1478 1481 1483 1486 1488 1490 1492 1493 1496 1497 1499 1500 1501 1502 1503
1457 1464 1453 1448 1449 1452 1456 1464 1478 1488 1497 1498 1488 1481 1477 1464 1460 1458 1457 1456 1457 1458 1460 1462 1465 1467 1470 1472 1475 1477 1480 1482 1484 1486 1488 1489 1491 1493 1495 1497 1498 1499 1500 1501
1452 1461 1457 1452 1454 1457 1460 1466 1473 1483 1485 1494 1496 1485 1462 1460 1457 1457 1456 1456 1457 1458 1460 1462 1464 1467 1469 1471 1474 1476 1478 1480 1482 1484 1486 1487 1489 1491 1493 1495 1496 1497 1498 1499
1452 1460 1465 1457 1450 1448 1452 1459 1468 1479 1482 1485 1488 1482 1455 1455 1454 1454 1455 1456 1457 1459 1460 1462 1464 1466 1468 1470 1472 1474 1476 1478 1480 1482 1483 1485 1487 1489 1490 1492 1494 1495 1496 1497
1452 1461 1469 1465 1461 1454 1454 1456 1461 1469 1478 1485 1486 1476 1455 1454 1453 1453 1454 1455 1457 1459 1461 1462 1464 1465 1467 1469 1471 1473 1475 1477 1479 1480 1481 1483 1485 1486 1488 1490 1491 1492 1494 1494
1447 1459 1464 1467 1462 1456 1457 1457 1459 1465 1476 1479 1474 1467 1458 1455 1454 1454 1454 1455 1457 1458 1459 1461 1463 1464 1466 1468 1470 1472 1474 1476 1477 1479 1480 1481 1482 1484 1486 1487 1488 1490 1491 1492
1448 1457 1456 1453 1450 1451 1454 1455 1457 1459 1462 1467 1464 1463 1458 1455 1453 1453 1453 1455 1457 1458 1459 1461 1462 1464 1465 1467 1469 1471 1473 1474 1476 1477 1478 1479 1481 1482 1484 1485 1486 1487 1488 1489
1452 1456 1455 1454 1450 1451 1454 1453 1454 1455 1456 1458 1458 1460 1455 1453 1453 1452 1453 1454 1456 1458 1459 1461 1462 1463 1465 1467 1468 1470 1471 1473 1474 1475 1476 1478 1479 1480 1482 1483 1484 1484 1485 1486
1456 1458 1460 1461 1453 1451 1459 1454 1453 1454 1454 1455 1459 1457 1453 1453 1452 1452 1453 1454 1455 1457 1458 1459 1460 1463 1465 1466 1467 1469 1470 1471 1472 1473 1474 1475 1477 1478 1479 1480 1482 1482 1483 1483
1457 1459 1463 1463 1459 1467 1459 1448 1448 1450 1452 1452 1452 1452 1452 1451 1451 1451 1452 1453 1455 1455 1457 1458 1460 1462 1464 1466 1467 1468 1469 1469 1470 1471 1472 1474 1475 1476 1477 1478 1479 1480 1481 1481
1451 1457 1463 1465 1464 1460 1454 1448 1449 1451 1453 1451 1451 1450 1451 1451 1451 1452 1453 1453 1454 1455 1456 1458 1460 1461 1463 1464 1465 1467 1467 1468 1469 1470 1471 1472 1473 1474 1475 1476 1477 1478 1478 1479
1453 1455 1462 1464 1463 1464 1455 1447 1445 1448 1453 1449 1449 1450 1451 1451 1455 1454 1451 1452 1453 1454 1455 1457 1458 1460 1461 1462 1464 1465 1466 1466 1467 1468 1469 1470 1471 1472 1472 1472 1473 1474 1475 1476
1459 1460 1463 1464 1464 1458 1451 1446 1446 1456 1455 1448 1448 1448 1449 1450 1451 1450 1450 1450 1452 1453 1454 1456 1457 1458 1459 1461 1462 1463 1464 1464 1465 1467 1468 1468 1468 1468 1469 1470 1470 1471 1472 1473
1457 1460 1462 1464 1464 1461 1449 1448 1451 1451 1447 1447 1447 1448 1448 1448 1448 1448 1448 1449 1450 1452 1453 1454 1456 1457 1458 1460 1460 1461 1462 1463 1464 1465 1465 1466 1466 1466 1466 1467 1467 1468 1469 1470
1456 1457 1457 1457 1457 1451 1448 1448 1448 1447 1446 1446 1446 1446 1447 1447 1447 1447 1448 1449 1450 1451 1452 1453 1454 1455 1457 1458 1459 1459 1460 1460 1461 1462 1463 1463 1464 1464 1464 1465 1465 1466 1466 1466
1455 1454 1455 1454 1451 1449 1448 1447 1446 1446 1445 1445 1444 1445 1445 1446 1446 1446 1447 1448 1449 1450 1451 1452 1453 1454 1455 1457 1458 1458 1458 1459 1460 1461 1461 1461 1462 1462 1462 1463 1463 1464 1464 1463
1457 1455 1455 1454 1451 1448 1446 1446 1445 1445 1445 1444 1444 1444 1444 1445 1446 1446 1446 1447 1448 1449 1450 1451 1452 1453 1454 1456 1457 1457 1458 1458 1458 1459 1459 1459 1460 1460 1460 1461 1461 1461 1461 1461
1457 1456 1456 1454 1451 1450 1447 1446 1445 1444 1444 1443 1443 1443 1444 1444 1445 1445 1446 1447 1448 1449 1450 1450 1451 1452 1453 1454 1455 1456 1456 1457 1456 1456 1457 1457 1458 1458 1458 1458 1459 1459 1459 1459